Wetterdaten: Sonntag, 25.01.2015
Datum Zeit Temp. A. Feuchte A. Luftdruck Regen Wind Richtung Richtung Sonnenschein ET UV Solar Taupunkt Windchill Windben Empfang
25.01.2015 00:00 -1,0 C 75 % 1021,2 hPa 0,0 l/m 3,2 km/h (1 Bft) W-SW 250 0 min 0,000 mm 0,0 UV-I 0 W/m -4,9 C -1,0 C 4,0 km/h (1 Bft) 0,00 %
25.01.2015 00:15 -1,0 C 75 % 1021,2 hPa 0,0 l/m 1,4 km/h (1 Bft) W-SW 250 0 min 0,000 mm 0,0 UV-I 0 W/m -4,9 C -1,0 C 4,0 km/h (1 Bft) 0,00 %
25.01.2015 00:30 -1,1 C 75 % 1021,5 hPa 0,0 l/m 0,4 km/h (0 Bft) W-SW 250 0 min 0,000 mm 0,0 UV-I 0 W/m -5,0 C -1,1 C 4,0 km/h (1 Bft) 0,00 %
25.01.2015 00:45 -0,9 C 74 % 1021,4 hPa 0,0 l/m 1,8 km/h (1 Bft) W-SW 250 0 min 0,000 mm 0,0 UV-I 0 W/m -4,9 C -0,9 C 4,0 km/h (1 Bft) 0,00 %
25.01.2015 01:00 -0,8 C 74 % 1021,4 hPa 0,0 l/m 0,7 km/h (0 Bft) W-SW 250 0 min 0,000 mm 0,0 UV-I 0 W/m -4,8 C -0,8 C 4,0 km/h (1 Bft) 0,00 %
25.01.2015 01:15 -0,8 C 74 % 1021,6 hPa 0,0 l/m 3,2 km/h (1 Bft) W-SW 250 0 min 0,000 mm 0,0 UV-I 0 W/m -4,8 C -0,8 C 7,9 km/h (2 Bft) 0,00 %
25.01.2015 01:30 -0,7 C 73 % 1021,5 hPa 0,0 l/m 0,7 km/h (0 Bft) W-SW 250 0 min 0,000 mm 0,0 UV-I 0 W/m -4,9 C -0,7 C 4,0 km/h (1 Bft) 0,00 %
25.01.2015 01:45 -0,7 C 72 % 1021,4 hPa 0,0 l/m 0,0 km/h (0 Bft) W-SW 250 0 min 0,000 mm 0,0 UV-I 0 W/m -5,1 C -0,7 C 0,0 km/h (0 Bft) 0,00 %
25.01.2015 02:00 -0,8 C 72 % 1021,7 hPa 0,0 l/m 3,2 km/h (1 Bft) W-SW 250 0 min 0,000 mm 0,0 UV-I 0 W/m -5,2 C -0,8 C 4,0 km/h (1 Bft) 0,00 %
25.01.2015 02:15 -0,8 C 72 % 1021,9 hPa 0,0 l/m 2,2 km/h (1 Bft) W-SW 250 0 min 0,000 mm 0,0 UV-I 0 W/m -5,2 C -0,8 C 4,0 km/h (1 Bft) 0,00 %
25.01.2015 02:30 -0,8 C 72 % 1021,9 hPa 0,0 l/m 0,7 km/h (0 Bft) W-SW 250 0 min 0,000 mm 0,0 UV-I 0 W/m -5,2 C -0,8 C 4,0 km/h (1 Bft) 0,00 %
25.01.2015 02:45 -0,8 C 72 % 1021,9 hPa 0,0 l/m 0,7 km/h (0 Bft) W-SW 250 0 min 0,000 mm 0,0 UV-I 0 W/m -5,2 C -0,8 C 4,0 km/h (1 Bft) 0,00 %
25.01.2015 03:00 -0,7 C 72 % 1022,0 hPa 0,0 l/m 0,0 km/h (0 Bft) W-SW 250 0 min 0,000 mm 0,0 UV-I 0 W/m -5,1 C -0,7 C 0,0 km/h (0 Bft) 0,00 %
25.01.2015 03:15 -0,7 C 73 % 1022,1 hPa 0,0 l/m 1,4 km/h (1 Bft) W-SW 250 0 min 0,000 mm 0,0 UV-I 0 W/m -4,9 C -0,7 C 4,0 km/h (1 Bft) 0,00 %
25.01.2015 03:30 -0,7 C 73 % 1022,2 hPa 0,0 l/m 0,0 km/h (0 Bft) W-SW 250 0 min 0,000 mm 0,0 UV-I 0 W/m -4,9 C -0,7 C 0,0 km/h (0 Bft) 0,00 %
25.01.2015 03:45 -0,7 C 73 % 1022,2 hPa 0,0 l/m 3,2 km/h (1 Bft) W-SW 250 0 min 0,000 mm 0,0 UV-I 0 W/m -4,9 C -0,7 C 4,0 km/h (1 Bft) 0,00 %
25.01.2015 04:00 -0,6 C 72 % 1022,3 hPa 0,0 l/m 1,4 km/h (1 Bft) W-SW 250 0 min 0,000 mm 0,0 UV-I 0 W/m -5,0 C -0,6 C 4,0 km/h (1 Bft) 0,00 %
25.01.2015 04:15 -0,7 C 72 % 1022,3 hPa 0,0 l/m 2,2 km/h (1 Bft) W-SW 250 0 min 0,000 mm 0,0 UV-I 0 W/m -5,1 C -0,7 C 7,9 km/h (2 Bft) 0,00 %
25.01.2015 04:30 -0,7 C 72 % 1022,4 hPa 0,0 l/m 0,4 km/h (0 Bft) W-SW 250 0 min 0,000 mm 0,0 UV-I 0 W/m -5,1 C -0,7 C 4,0 km/h (1 Bft) 0,00 %
25.01.2015 04:45 -0,7 C 72 % 1022,4 hPa 0,0 l/m 2,2 km/h (1 Bft) W-SW 250 0 min 0,000 mm 0,0 UV-I 0 W/m -5,1 C -0,7 C 4,0 km/h (1 Bft) 0,00 %
25.01.2015 05:00 -0,6 C 73 % 1022,5 hPa 0,0 l/m 0,7 km/h (0 Bft) W-SW 250 0 min 0,000 mm 0,0 UV-I 0 W/m -4,8 C -0,6 C 4,0 km/h (1 Bft) 0,00 %
25.01.2015 05:15 -0,7 C 75 % 1022,4 hPa 0,0 l/m 1,8 km/h (1 Bft) W-SW 250 0 min 0,000 mm 0,0 UV-I 0 W/m -4,6 C -0,7 C 4,0 km/h (1 Bft) 0,00 %
25.01.2015 05:30 -0,8 C 77 % 1022,4 hPa 0,0 l/m 2,2 km/h (1 Bft) W-SW 250 0 min 0,000 mm 0,0 UV-I 0 W/m -4,3 C -0,8 C 4,0 km/h (1 Bft) 0,00 %
25.01.2015 05:45 -0,9 C 78 % 1022,7 hPa 0,0 l/m 0,7 km/h (0 Bft) W-SW 250 0 min 0,000 mm 0,0 UV-I 0 W/m -4,2 C -0,9 C 4,0 km/h (1 Bft) 0,00 %
25.01.2015 06:00 -1,0 C 79 % 1022,5 hPa 0,0 l/m 0,0 km/h (0 Bft) W-SW 250 0 min 0,000 mm 0,0 UV-I 0 W/m -4,2 C -1,0 C 0,0 km/h (0 Bft) 0,00 %
25.01.2015 06:15 -1,0 C 81 % 1022,9 hPa 0,0 l/m 1,4 km/h (1 Bft) W-SW 250 0 min 0,000 mm 0,0 UV-I 0 W/m -3,8 C -1,0 C 4,0 km/h (1 Bft) 0,00 %
25.01.2015 06:30 -1,0 C 81 % 1023,1 hPa 0,0 l/m 0,7 km/h (0 Bft) W-SW 250 0 min 0,000 mm 0,0 UV-I 0 W/m -3,8 C -1,0 C 4,0 km/h (1 Bft) 0,00 %
25.01.2015 06:45 -0,9 C 81 % 1023,1 hPa 0,0 l/m 0,0 km/h (0 Bft) W-SW 250 0 min 0,000 mm 0,0 UV-I 0 W/m -3,7 C -0,9 C 0,0 km/h (0 Bft) 0,00 %
25.01.2015 07:00 -0,9 C 81 % 1023,2 hPa 0,0 l/m 0,7 km/h (0 Bft) W-SW 250 0 min 0,000 mm 0,0 UV-I 0 W/m -3,7 C -0,9 C 4,0 km/h (1 Bft) 0,00 %
25.01.2015 07:15 -0,8 C 81 % 1023,4 hPa 0,0 l/m 0,7 km/h (0 Bft) W-SW 250 0 min 0,000 mm 0,0 UV-I 0 W/m -3,6 C -0,8 C 4,0 km/h (1 Bft) 0,00 %
25.01.2015 07:30 -0,6 C 80 % 1023,5 hPa 0,0 l/m 4,3 km/h (1 Bft) W-SW 250 0 min 0,000 mm 0,0 UV-I 0 W/m -3,6 C -0,6 C 7,9 km/h (2 Bft) 0,00 %
25.01.2015 07:45 -0,5 C 77 % 1023,6 hPa 0,0 l/m 6,8 km/h (2 Bft) W-SW 251 0 min 0,000 mm 0,0 UV-I 0 W/m -4,0 C -0,9 C 11,9 km/h (2 Bft) 0,00 %
25.01.2015 08:00 -0,5 C 77 % 1024,1 hPa 0,0 l/m 4,0 km/h (1 Bft) W-SW 252 0 min 0,000 mm 0,0 UV-I 0 W/m -4,0 C -0,5 C 7,9 km/h (2 Bft) 0,00 %
25.01.2015 08:15 -0,5 C 79 % 1024,1 hPa 0,0 l/m 4,0 km/h (1 Bft) W-SW 252 0 min 0,000 mm 0,0 UV-I 0 W/m -3,7 C -0,5 C 7,9 km/h (2 Bft) 0,00 %
25.01.2015 08:30 -0,6 C 79 % 1024,2 hPa 0,0 l/m 2,9 km/h (1 Bft) W-SW 252 0 min 0,000 mm 0,0 UV-I 7 W/m -3,8 C -0,6 C 4,0 km/h (1 Bft) 0,00 %
25.01.2015 08:45 -0,5 C 77 % 1024,2 hPa 0,0 l/m 0,0 km/h (0 Bft) W-SW 252 0 min 0,000 mm 0,0 UV-I 26 W/m -4,0 C -0,5 C 0,0 km/h (0 Bft) 0,00 %
25.01.2015 09:00 -0,4 C 76 % 1024,5 hPa 0,0 l/m 1,8 km/h (1 Bft) W-SW 252 0 min 0,000 mm 0,0 UV-I 29 W/m -4,1 C -0,4 C 4,0 km/h (1 Bft) 0,00 %
25.01.2015 09:15 -0,4 C 75 % 1024,5 hPa 0,0 l/m 0,0 km/h (0 Bft) W-SW 252 0 min 0,000 mm 1,0 UV-I 40 W/m -4,3 C -0,4 C 0,0 km/h (0 Bft) 0,00 %
25.01.2015 09:30 -0,2 C 75 % 1024,7 hPa 0,0 l/m 0,4 km/h (0 Bft) W-SW 250 0 min 0,000 mm 1,0 UV-I 50 W/m -4,1 C -0,2 C 4,0 km/h (1 Bft) 0,00 %
25.01.2015 09:45 -0,3 C 76 % 1025,0 hPa 0,0 l/m 0,4 km/h (0 Bft) W-SW 244 0 min 0,000 mm 1,0 UV-I 54 W/m -4,0 C -0,3 C 4,0 km/h (1 Bft) 0,00 %
25.01.2015 10:00 -0,2 C 75 % 1024,9 hPa 0,0 l/m 2,9 km/h (1 Bft) W-SW 252 0 min 0,000 mm 1,0 UV-I 73 W/m -4,1 C -0,2 C 11,9 km/h (2 Bft) 0,00 %
25.01.2015 10:15 0,0 C 75 % 1025,1 hPa 0,0 l/m 4,3 km/h (1 Bft) W 275 0 min 0,000 mm 1,0 UV-I 79 W/m -3,9 C 0,0 C 7,9 km/h (2 Bft) 0,00 %
25.01.2015 10:30 0,1 C 76 % 1025,2 hPa 0,0 l/m 0,4 km/h (0 Bft) NW 323 0 min 0,000 mm 1,0 UV-I 80 W/m -3,6 C 0,1 C 4,0 km/h (1 Bft) 0,00 %
25.01.2015 10:45 0,0 C 77 % 1025,2 hPa 0,0 l/m 0,0 km/h (0 Bft) SW 222 0 min 0,000 mm 1,0 UV-I 92 W/m -3,5 C 0,0 C 0,0 km/h (0 Bft) 0,00 %
25.01.2015 11:00 0,1 C 77 % 1025,3 hPa 0,0 l/m 1,8 km/h (1 Bft) W-SW 255 15 min 0,000 mm 1,0 UV-I 199 W/m -3,4 C 0,1 C 7,9 km/h (2 Bft) 0,00 %
25.01.2015 11:15 0,3 C 76 % 1025,3 hPa 0,0 l/m 0,4 km/h (0 Bft) NO 49 0 min 0,000 mm 1,0 UV-I 200 W/m -3,4 C 0,3 C 4,0 km/h (1 Bft) 0,00 %
25.01.2015 11:30 0,5 C 74 % 1025,1 hPa 0,0 l/m 2,9 km/h (1 Bft) O-NO 75 0 min 0,000 mm 1,0 UV-I 205 W/m -3,6 C 0,5 C 4,0 km/h (1 Bft) 0,00 %
25.01.2015 11:45 0,6 C 74 % 1025,1 hPa 0,0 l/m 0,0 km/h (0 Bft) SW 219 0 min 0,000 mm 1,0 UV-I 210 W/m -3,5 C 0,6 C 0,0 km/h (0 Bft) 0,00 %
25.01.2015 12:00 0,7 C 73 % 1025,1 hPa 0,0 l/m 7,9 km/h (2 Bft) W-SW 256 15 min 0,000 mm 1,0 UV-I 220 W/m -3,6 C -0,8 C 11,9 km/h (2 Bft) 0,00 %
25.01.2015 12:15 0,9 C 72 % 1025,3 hPa 0,0 l/m 1,8 km/h (1 Bft) W-SW 255 15 min 0,000 mm 1,0 UV-I 230 W/m -3,6 C 0,9 C 4,0 km/h (1 Bft) 0,00 %
25.01.2015 12:30 1,2 C 71 % 1025,2 hPa 0,0 l/m 0,4 km/h (0 Bft) W-SW 241 0 min 0,000 mm 2,0 UV-I 210 W/m -3,5 C 1,2 C 4,0 km/h (1 Bft) 0,00 %
25.01.2015 12:45 1,2 C 71 % 1025,3 hPa 0,0 l/m 4,0 km/h (1 Bft) W-SW 254 0 min 0,000 mm 1,0 UV-I 200 W/m -3,5 C 1,2 C 7,9 km/h (2 Bft) 0,00 %
25.01.2015 13:00 1,2 C 71 % 1025,3 hPa 0,0 l/m 4,7 km/h (1 Bft) W-SW 252 0 min 0,000 mm 1,0 UV-I 147 W/m -3,5 C 1,2 C 7,9 km/h (2 Bft) 0,00 %
25.01.2015 13:15 1,4 C 71 % 1025,1 hPa 0,3 l/m 0,7 km/h (0 Bft) W-SW 254 0 min 0,000 mm 2,0 UV-I 157 W/m -3,3 C 1,4 C 4,0 km/h (1 Bft) 0,00 %
25.01.2015 13:30 1,4 C 70 % 1025,1 hPa 0,0 l/m 2,2 km/h (1 Bft) W-SW 251 0 min 0,000 mm 2,0 UV-I 147 W/m -3,5 C 1,4 C 7,9 km/h (2 Bft) 0,00 %
25.01.2015 13:45 1,3 C 70 % 1025,0 hPa 0,0 l/m 4,0 km/h (1 Bft) W-SW 256 0 min 0,000 mm 1,0 UV-I 130 W/m -3,6 C 1,3 C 7,9 km/h (2 Bft) 0,00 %
25.01.2015 14:00 1,2 C 70 % 1025,3 hPa 0,0 l/m 0,0 km/h (0 Bft) O-NO 70 0 min 0,000 mm 1,0 UV-I 118 W/m -3,7 C 1,2 C 0,0 km/h (0 Bft) 0,00 %
25.01.2015 14:15 1,1 C 70 % 1025,5 hPa 0,0 l/m 4,3 km/h (1 Bft) N-NW 348 0 min 0,000 mm 1,0 UV-I 72 W/m -3,7 C 1,1 C 7,9 km/h (2 Bft) 0,00 %
25.01.2015 14:30 1,0 C 71 % 1025,5 hPa 0,0 l/m 7,9 km/h (2 Bft) W-SW 254 0 min 0,000 mm 1,0 UV-I 73 W/m -3,7 C -0,5 C 11,9 km/h (2 Bft) 0,00 %
25.01.2015 14:45 1,0 C 71 % 1025,4 hPa 0,0 l/m 2,9 km/h (1 Bft) W 277 0 min 0,000 mm 1,0 UV-I 65 W/m -3,7 C 1,0 C 4,0 km/h (1 Bft) 0,00 %
25.01.2015 15:00 1,0 C 71 % 1025,7 hPa 0,0 l/m 9,0 km/h (2 Bft) W-SW 256 0 min 0,000 mm 1,0 UV-I 51 W/m -3,7 C -1,5 C 11,9 km/h (2 Bft) 0,00 %
25.01.2015 15:15 0,8 C 71 % 1025,8 hPa 0,0 l/m 4,3 km/h (1 Bft) W-SW 256 0 min 0,000 mm 0,0 UV-I 16 W/m -3,8 C 0,8 C 7,9 km/h (2 Bft) 0,00 %
25.01.2015 15:30 0,6 C 71 % 1026,0 hPa 0,0 l/m 2,9 km/h (1 Bft) W-SW 251 0 min 0,000 mm 0,0 UV-I 19 W/m -4,0 C 0,6 C 4,0 km/h (1 Bft) 0,00 %
25.01.2015 15:45 0,6 C 71 % 1026,1 hPa 0,0 l/m 1,8 km/h (1 Bft) W-SW 255 0 min 0,000 mm 0,0 UV-I 10 W/m -4,0 C 0,6 C 7,9 km/h (2 Bft) 0,00 %
25.01.2015 16:00 0,6 C 71 % 1026,2 hPa 0,0 l/m 3,2 km/h (1 Bft) W-SW 251 0 min 0,000 mm 0,0 UV-I 4 W/m -4,0 C 0,6 C 4,0 km/h (1 Bft) 0,00 %
25.01.2015 16:15 0,5 C 71 % 1026,5 hPa 0,0 l/m 0,4 km/h (0 Bft) S-SW 199 0 min 0,000 mm 0,0 UV-I 3 W/m -4,1 C 0,5 C 4,0 km/h (1 Bft) 0,00 %
25.01.2015 16:30 0,5 C 71 % 1026,5 hPa 0,0 l/m 0,4 km/h (0 Bft) S-SW 193 0 min 0,000 mm 0,0 UV-I 0 W/m -4,1 C 0,5 C 4,0 km/h (1 Bft) 0,00 %
25.01.2015 16:45 0,5 C 71 % 1026,5 hPa 0,0 l/m 0,0 km/h (0 Bft) W-SW 250 0 min 0,000 mm 0,0 UV-I 0 W/m -4,1 C 0,5 C 0,0 km/h (0 Bft) 0,00 %
25.01.2015 17:00 0,4 C 72 % 1026,7 hPa 0,0 l/m 4,3 km/h (1 Bft) W-SW 256 0 min 0,000 mm 0,0 UV-I 0 W/m -4,0 C 0,4 C 7,9 km/h (2 Bft) 0,00 %
25.01.2015 17:15 0,4 C 71 % 1026,7 hPa 0,0 l/m 0,0 km/h (0 Bft) W-SW 258 0 min 0,000 mm 0,0 UV-I 0 W/m -4,2 C 0,4 C 0,0 km/h (0 Bft) 0,00 %
25.01.2015 17:30 0,5 C 70 % 1026,7 hPa 0,0 l/m 1,8 km/h (1 Bft) W-SW 256 0 min 0,000 mm 0,0 UV-I 0 W/m -4,3 C 0,5 C 4,0 km/h (1 Bft) 0,00 %
25.01.2015 17:45 0,4 C 71 % 1027,0 hPa 0,0 l/m 0,0 km/h (0 Bft) S-SW 192 0 min 0,000 mm 0,0 UV-I 0 W/m -4,2 C 0,4 C 0,0 km/h (0 Bft) 0,00 %
25.01.2015 18:00 0,4 C 71 % 1026,9 hPa 0,0 l/m 1,4 km/h (1 Bft) W-SW 254 0 min 0,000 mm 0,0 UV-I 0 W/m -4,2 C 0,4 C 4,0 km/h (1 Bft) 0,00 %
25.01.2015 18:15 0,4 C 71 % 1027,0 hPa 0,0 l/m 0,0 km/h (0 Bft) N-NW 347 0 min 0,000 mm 0,0 UV-I 0 W/m -4,2 C 0,4 C 0,0 km/h (0 Bft) 0,00 %
25.01.2015 18:30 0,3 C 71 % 1027,3 hPa 0,0 l/m 3,2 km/h (1 Bft) W-SW 255 0 min 0,000 mm 0,0 UV-I 0 W/m -4,3 C 0,3 C 4,0 km/h (1 Bft) 0,00 %
25.01.2015 18:45 0,2 C 71 % 1027,2 hPa 0,0 l/m 0,0 km/h (0 Bft) W-SW 255 0 min 0,000 mm 0,0 UV-I 0 W/m -4,4 C 0,2 C 0,0 km/h (0 Bft) 0,00 %
25.01.2015 19:00 0,2 C 71 % 1027,4 hPa 0,0 l/m 0,0 km/h (0 Bft) SW 219 0 min 0,000 mm 0,0 UV-I 0 W/m -4,4 C 0,2 C 0,0 km/h (0 Bft) 0,00 %
25.01.2015 19:15 0,1 C 71 % 1027,4 hPa 0,0 l/m 0,4 km/h (0 Bft) O-SO 109 0 min 0,000 mm 0,0 UV-I 0 W/m -4,5 C 0,1 C 4,0 km/h (1 Bft) 0,00 %
25.01.2015 19:30 0,1 C 71 % 1027,1 hPa 0,0 l/m 9,0 km/h (2 Bft) SW 219 0 min 0,000 mm 0,0 UV-I 0 W/m -4,5 C -2,5 C 15,8 km/h (3 Bft) 0,00 %
25.01.2015 19:45 0,2 C 70 % 1027,3 hPa 0,0 l/m 0,7 km/h (0 Bft) W-SW 250 0 min 0,000 mm 0,0 UV-I 0 W/m -4,6 C 0,2 C 4,0 km/h (1 Bft) 0,00 %
25.01.2015 20:00 0,2 C 70 % 1027,4 hPa 0,0 l/m 3,2 km/h (1 Bft) SW 235 0 min 0,000 mm 0,0 UV-I 0 W/m -4,6 C 0,2 C 4,0 km/h (1 Bft) 0,00 %
25.01.2015 20:15 0,2 C 70 % 1027,5 hPa 0,0 l/m 4,3 km/h (1 Bft) SW 218 0 min 0,000 mm 0,0 UV-I 0 W/m -4,6 C 0,2 C 7,9 km/h (2 Bft) 0,00 %
25.01.2015 20:30 0,1 C 70 % 1027,7 hPa 0,0 l/m 0,0 km/h (0 Bft) SW 232 0 min 0,000 mm 0,0 UV-I 0 W/m -4,7 C 0,1 C 0,0 km/h (0 Bft) 0,00 %
25.01.2015 20:45 0,0 C 70 % 1027,8 hPa 0,0 l/m 2,9 km/h (1 Bft) SW 236 0 min 0,000 mm 0,0 UV-I 0 W/m -4,8 C 0,0 C 7,9 km/h (2 Bft) 0,00 %
25.01.2015 21:00 0,0 C 70 % 1027,7 hPa 0,0 l/m 0,0 km/h (0 Bft) W-SW 256 0 min 0,000 mm 0,0 UV-I 0 W/m -4,8 C 0,0 C 0,0 km/h (0 Bft) 0,00 %
25.01.2015 21:15 -0,1 C 70 % 1027,9 hPa 0,0 l/m 4,3 km/h (1 Bft) W 275 0 min 0,000 mm 0,0 UV-I 0 W/m -4,9 C -0,1 C 7,9 km/h (2 Bft) 0,00 %
25.01.2015 21:30 0,0 C 70 % 1027,7 hPa 0,0 l/m 1,8 km/h (1 Bft) W 275 0 min 0,000 mm 0,0 UV-I 0 W/m -4,8 C 0,0 C 4,0 km/h (1 Bft) 0,00 %
25.01.2015 21:45 -0,1 C 71 % 1028,0 hPa 0,0 l/m 1,4 km/h (1 Bft) W 275 0 min 0,000 mm 0,0 UV-I 0 W/m -4,7 C -0,1 C 4,0 km/h (1 Bft) 0,00 %
25.01.2015 22:00 -0,5 C 75 % 1027,9 hPa 0,0 l/m 0,7 km/h (0 Bft) W 275 0 min 0,000 mm 0,0 UV-I 0 W/m -4,4 C -0,5 C 4,0 km/h (1 Bft) 0,00 %
25.01.2015 22:15 -0,5 C 75 % 1027,7 hPa 0,0 l/m 1,8 km/h (1 Bft) W 275 0 min 0,000 mm 0,0 UV-I 0 W/m -4,4 C -0,5 C 4,0 km/h (1 Bft) 0,00 %
25.01.2015 22:30 -0,6 C 77 % 1028,1 hPa 0,0 l/m 0,7 km/h (0 Bft) W 275 0 min 0,000 mm 0,0 UV-I 0 W/m -4,1 C -0,6 C 4,0 km/h (1 Bft) 0,00 %
25.01.2015 22:45 -0,7 C 77 % 1027,9 hPa 0,0 l/m 0,4 km/h (0 Bft) W 274 0 min 0,000 mm 0,0 UV-I 0 W/m -4,2 C -0,7 C 4,0 km/h (1 Bft) 0,00 %
25.01.2015 23:00 -0,7 C 77 % 1028,1 hPa 0,0 l/m 0,4 km/h (0 Bft) W 274 0 min 0,000 mm 0,0 UV-I 0 W/m -4,2 C -0,7 C 4,0 km/h (1 Bft) 0,00 %
25.01.2015 23:15 -0,6 C 77 % 1027,5 hPa 0,0 l/m 0,0 km/h (0 Bft) W 274 0 min 0,000 mm 0,0 UV-I 0 W/m -4,1 C -0,6 C 0,0 km/h (0 Bft) 0,00 %
25.01.2015 23:30 -0,6 C 77 % 1028,1 hPa 0,0 l/m 0,7 km/h (0 Bft) W 274 0 min 0,000 mm 0,0 UV-I 0 W/m -4,1 C -0,6 C 4,0 km/h (1 Bft) 0,00 %
25.01.2015 23:45 -0,5 C 76 % 1027,8 hPa 0,0 l/m 0,0 km/h (0 Bft) W 275 0 min 0,000 mm 0,0 UV-I 0 W/m -4,2 C -0,5 C 0,0 km/h (0 Bft) 0,00 %
_ Min-Zeit 00:30 13:30 00:00 - 01:45 - - - - - - 02:00 19:30 01:45 00:00
Minimum _ -1,1 C 70 % 1021,2 hPa - 0,0 km/h (0 Bft) - - - - - - -5,2 C -2,5 C 0,0 km/h (0 Bft) 0,00 %
_ Max-Zeit 13:15 06:15 22:30 13:15 15:00 - - 11:00 00:00 12:30 12:15 13:15 13:15 19:30 00:00
Maximum _ 1,4 C 81 % 1028,1 hPa 0,3 l/m 9,0 km/h
W-SW (2 Bft)
- - 15 min 0,000 mm 2,0 UV-I 230 W/m -3,3 C 1,4 C 15,8 km/h
SW (3 Bft)
0,00 %
Durchschnitt _ -0,1 C 74 % 1024,9 hPa #0,3 l/m 1,9 km/h (1 Bft) W-SW - #45 min. #0,000 mm 1,1 UV-I 101 W/m -4,2 C -0,2 C 4,4 km/h (1 Bft) 0,00 %